Temp
9 9 9 9 9 9 9 8 8 8 8 8 8 8 8 7 8 7 7 7 8 7 8 8 8 9 9 10 11 13 12 13 13 14 14 14 14 15 15 15 15 16 16 17 18 18 18
9 9 9 9 8 8 8 8 8 7 7 7 8 8 7 7 7 8 7 7 7 7 7 7 8 8 8 10 13 13 13 14 13 13 14 14 15 15 15 15 16 16 17 17 17 17 17
9 8 8 8 8 8 8 8 7 7 7 7 7 7 7 7 7 7 7 7 7 7 7 7 8 8 8 10 12 13 13 13 13 13 14 15 16 16 15 15 15 15 15 16 16 17 17
9 8 8 8 8 8 7 8 7 7 7 7 7 7 7 7 7 7 7 7 7 7 7 7 7 8 8 12 11 12 12 13 13 13 15 15 16 15 15 15 15 15 16 15 16 16 17
8 8 8 8 8 8 7 8 7 8 8 8 8 7 7 7 7 7 7 7 6 7 7 7 7 8 9 11 11 13 12 12 13 13 14 14 15 15 15 14 14 14 14 14 16 16 16
8 8 8 8 7 7 8 8 8 7 7 7 7 7 7 7 7 6 7 7 6 6 7 7 7 8 10 11 11 12 13 12 13 12 14 14 13 13 12 13 14 13 13 14 15 16 15
8 8 7 7 7 7 7 8 7 7 7 7 7 7 7 7 7 6 6 7 5 6 6 6 7 9 10 10 11 13 13 13 13 14 13 13 13 14 14 15 14 14 14 14 14 15 15
7 8 7 7 7 7 7 7 7 7 7 7 7 7 7 7 7 6 6 5 6 7 6 8 8 10 10 12 12 12 13 13 13 13 13 13 13 14 14 14 14 14 14 14 14 14 15
7 7 7 7 7 7 7 7 7 7 7 7 7 7 7 7 7 6 6 6 7 7 6 8 8 9 10 13 12 12 12 12 10 11 13 14 15 15 15 14 14 14 14 13 14 13 12
7 7 7 7 7 7 6 6 6 7 7 7 7 6 7 7 7 6 6 6 6 6 4 8 9 10 11 11 11 13 12 13 12 9 12 12 13 15 14 14 14 13 14 14 13 13 14
7 7 7 6 7 6 6 6 6 7 7 7 7 6 6 7 6 5 5 6 6 7 6 9 9 9 11 11 12 12 12 13 13 12 12 11 13 13 14 14 14 14 13 12 12 11 12
7 7 6 6 6 6 6 6 6 6 7 7 7 7 8 7 6 5 6 6 7 4 8 9 9 11 12 11 12 12 12 14 13 12 12 11 11 12 12 11 12 12 11 10 9 10 12
6 6 6 6 6 6 6 6 6 6 6 8 8 8 8 7 5 6 6 5 4 7 8 9 10 12 12 11 12 12 12 12 12 12 11 11 10 11 11 10 10 11 12 11 11 10 13
6 6 6 6 6 5 6 5 6 6 6 9 9 9 8 7 7 7 6 4 10 10 10 10 11 12 11 11 12 12 12 12 11 11 11 11 11 12 13 12 12 11 12 12 13 12 12
6 6 6 6 5 5 5 5 5 6 6 7 8 9 8 7 6 6 5 9 8 9 12 11 11 11 11 11 12 12 10 12 12 12 12 10 10 12 12 12 12 11 11 10 9 7 9
6 6 6 6 5 5 5 5 5 5 6 6 7 7 8 8 7 6 5 10 9 9 11 10 10 10 10 11 11 11 11 12 12 12 12 11 10 12 12 12 11 12 10 10 7 9 12
5 6 6 5 5 5 5 5 5 5 6 8 7 6 9 9 7 6 7 8 9 10 11 11 10 9 10 10 9 10 11 12 12 12 11 10 11 11 12 12 11 11 10 8 9 8 11
5 6 5 5 5 5 5 4 5 5 6 8 4 6 11 10 7 7 8 8 8 10 11 11 11 10 9 10 10 10 11 11 12 12 12 11 9 10 11 10 10 11 10 9 10 9 7
5 5 5 5 5 5 4 4 4 5 5 6 4 4 10 9 6 7 8 9 9 10 11 12 12 11 11 11 11 11 11 11 12 13 12 11 8 7 9 10 10 10 9 9 8 7 6
5 5 5 5 5 5 4 4 4 4 6 6 4 5 5 4 5 9 8 9 10 10 11 11 11 11 11 11 10 10 11 11 11 13 13 11 9 9 9 10 9 8 9 9 9 8 8
5 5 5 5 5 5 4 4 4 5 7 6 3 5 6 5 6 6 7 9 11 11 10 11 12 12 12 11 11 10 11 11 11 13 11 11 8 7 9 10 9 9 10 9 8 8 9
4 4 4 5 5 4 4 4 4 5 6 6 5 5 7 5 5 7 8 10 10 11 10 12 11 12 13 11 11 10 10 10 11 11 11 10 8 7 7 9 9 8 9 9 9 9 9
4 4 4 4 4 4 4 4 4 4 5 4 4 5 6 6 6 7 8 10 11 10 11 10 12 13 13 11 11 11 11 10 11 10 10 11 7 7 7 9 9 9 9 9 10 9 11
4 4 4 4 4 4 4 4 4 4 4 4 4 4 6 6 5 7 7 8 11 11 11 11 11 12 11 10 10 10 10 9 10 10 10 9 8 7 9 8 9 12 11 10 11 11 10
4 4 4 4 4 4 4 4 4 4 4 4 3 3 5 6 6 6 7 7 9 10 10 11 10 10 9 10 10 12 12 12 11 11 11 11 9 9 10 11 11 13 10 10 12 14 11
4 5 5 4 4 4 4 4 4 4 4 4 3 3 3 5 4 5 6 6 7 8 9 10 10 9 10 10 10 10 9 10 10 10 10 10 9 9 9 9 10 13 13 12 13 13 12
4 4 4 4 4 4 4 4 4 4 4 4 3 3 3 3 5 6 6 7 7 7 7 7 9 10 9 7 9 9 8 9 11 11 10 10 10 10 10 10 10 11 12 12 12 13 13
4 4 3 4 4 3 4 4 4 4 3 4 3 3 3 0 1 3 5 5 7 7 7 7 8 8 7 9 10 10 8 8 9 10 11 11 10 11 11 10 9 11 12 12 13 12 12
4 3 3 3 4 4 3 4 4 4 3 3 3 3 3 1 1 3 4 5 4 5 6 7 7 7 7 7 6 6 8 6 7 9 8 10 9 9 9 10 11 11 13 13 11 11 11
Height
832 828 824 820 815 811 807 802 797 793 788 784 781 778 775 774 771 769 766 765 764 764 764 765 766 766 767 765 756 753 754 756 763 768 770 774 779 782 788 791 794 794 793 791 790 793 796
831 826 822 817 813 808 803 799 794 789 784 781 777 774 772 770 768 766 764 762 762 761 761 761 762 763 765 761 753 752 752 756 760 764 767 771 775 778 786 788 790 790 790 791 790 793 793
829 825 821 816 811 806 801 796 791 786 782 777 774 771 768 766 764 762 761 759 759 759 759 759 760 761 760 753 749 748 752 754 756 761 764 769 771 776 781 788 786 790 797 795 793 794 794
828 824 820 816 810 804 799 794 788 783 779 774 771 767 764 763 761 759 757 756 756 756 756 756 757 759 755 749 751 752 752 750 756 761 765 768 771 776 778 782 788 792 795 803 792 793 792
828 823 818 813 808 802 797 792 787 781 776 771 767 763 760 759 757 756 754 753 752 752 753 754 756 755 748 745 748 747 751 750 754 760 764 768 770 775 779 786 794 797 802 803 795 790 791
827 823 818 813 807 801 796 791 785 778 772 766 762 758 756 755 754 753 752 751 748 748 751 753 754 756 745 744 743 746 748 750 752 759 766 771 774 779 784 785 789 795 800 800 796 792 794
826 823 817 812 806 800 794 788 782 776 769 762 755 752 751 750 750 750 750 749 752 753 750 752 751 744 740 742 744 746 746 746 752 757 764 769 773 771 777 780 784 787 794 796 794 792 793
826 822 817 811 805 799 793 787 781 775 767 759 752 746 743 743 745 747 749 750 750 752 752 747 747 744 743 741 743 747 747 749 752 758 761 772 773 771 777 782 783 787 793 797 795 794 794
825 821 816 810 804 798 792 786 781 774 767 759 751 744 739 739 740 741 746 749 749 749 750 749 747 745 742 741 743 747 750 745 763 766 762 766 767 767 775 781 785 790 791 796 796 797 801
824 820 815 810 803 797 791 787 781 773 767 760 754 748 742 738 742 746 748 750 750 750 761 753 748 742 743 743 748 748 747 749 753 776 765 772 770 767 773 780 782 792 790 793 797 799 803
823 819 815 810 803 797 791 786 780 774 767 762 756 752 749 744 748 750 752 750 751 752 771 750 747 745 743 748 750 749 749 748 753 760 766 778 769 771 774 779 781 789 793 799 804 810 811
822 819 814 809 803 798 792 787 780 774 768 764 761 757 753 752 752 754 753 753 753 769 755 755 750 746 746 751 751 752 751 751 758 766 770 777 777 776 781 788 787 793 800 809 818 818 814
821 818 813 809 804 798 792 787 780 773 769 766 764 761 756 756 757 755 755 755 768 759 763 759 753 746 746 752 754 756 754 760 762 770 774 780 788 786 785 795 798 800 795 810 815 823 803
822 818 814 809 804 799 794 788 781 773 767 763 762 760 758 757 757 755 755 763 742 748 746 753 748 747 751 756 756 758 760 764 767 769 778 782 787 786 784 786 791 799 797 802 797 806 807
821 818 813 809 804 800 795 790 782 774 765 760 759 757 756 755 755 755 758 750 763 755 747 749 750 758 761 760 759 762 772 767 767 767 773 787 793 786 786 786 787 797 803 809 825 842 829
820 817 814 809 804 799 794 789 783 775 766 759 758 756 754 753 752 755 761 751 759 757 751 754 762 760 764 764 764 765 768 766 767 767 769 781 793 788 789 784 792 792 805 810 831 828 804
820 816 813 808 804 799 793 787 782 775 766 759 758 760 754 751 751 755 766 767 762 758 754 753 763 766 765 767 774 775 772 768 765 768 770 779 785 795 787 790 796 801 805 816 820 827 807
820 816 813 807 803 799 794 787 781 775 766 761 761 769 754 750 762 766 765 769 765 759 755 753 757 762 770 771 771 771 768 768 765 766 772 777 791 794 794 796 795 797 801 806 811 822 836
819 817 813 809 805 800 795 789 781 776 771 767 770 769 755 753 777 777 771 765 765 759 758 753 755 756 761 764 768 768 769 767 767 765 771 775 797 819 807 801 800 798 802 805 812 820 832
818 816 813 809 806 802 796 791 783 776 772 770 772 777 767 766 774 768 772 767 761 760 756 756 758 757 759 765 770 771 771 770 769 766 766 771 792 797 803 794 798 805 800 802 805 818 814
817 815 812 809 806 802 798 793 786 777 772 772 774 779 777 784 777 777 777 769 762 761 759 757 756 757 759 766 767 771 770 771 771 767 772 775 798 804 792 790 796 795 793 800 807 803 803
817 815 812 809 806 803 799 794 788 780 773 775 779 780 776 781 781 776 772 767 763 761 762 756 758 755 755 764 765 771 769 771 769 774 775 779 799 803 807 792 796 797 792 793 793 793 793
817 815 812 810 806 803 800 796 791 785 778 780 782 781 780 779 779 776 771 765 762 761 760 759 755 752 755 759 760 761 763 766 766 773 779 778 799 805 806 794 794 789 783 781 782 784 778
815 813 812 810 806 804 801 797 794 790 787 786 786 784 780 779 779 775 774 770 760 760 757 759 757 756 762 762 763 764 766 770 770 773 773 783 790 800 794 797 799 763 764 766 767 769 774
814 812 811 809 806 803 802 798 795 793 791 788 787 786 783 779 779 776 773 772 766 762 760 758 759 759 760 762 767 764 766 765 770 771 771 772 784 790 789 781 773 755 764 765 762 753 761
811 810 809 807 805 803 801 799 796 794 792 790 789 788 787 783 781 778 775 774 770 768 766 761 761 761 761 766 768 771 780 777 775 777 775 775 781 786 788 787 780 755 752 752 754 758 754
809 808 807 806 804 802 800 798 796 794 792 791 790 789 788 786 777 776 775 772 769 770 771 768 761 762 762 774 772 775 783 774 769 766 774 776 777 779 778 780 773 755 752 753 762 759 750
807 806 806 805 803 801 800 797 795 794 792 791 790 789 789 791 782 775 774 773 766 766 769 766 765 764 770 767 765 764 779 776 772 768 765 766 775 770 773 777 781 751 754 755 750 749 749
806 806 805 803 802 801 798 796 794 793 791 789 789 788 788 788 778 772 770 770 769 771 770 764 762 760 759 766 772 772 770 778 775 772 770 766 768 771 768 763 751 750 745 745 748 749 747
Wind_Speed
21 24 24 25 26 27 27 28 24 23 23 22 20 21 19 17 15 15 14 14 14 13 11 10 9 8 7 7 7 4 8 0 30 27 21 11 13 10 9 5 5 2 4 5 2 4 4
22 23 24 25 26 27 28 28 25 24 24 22 21 19 16 15 14 13 13 11 12 12 11 10 8 6 5 9 6 22 12 7 30 27 22 11 11 5 7 6 5 8 4 3 2 2 1
22 23 25 26 29 27 29 27 25 25 24 23 22 20 17 16 14 13 12 11 9 10 11 10 7 7 6 12 6 13 6 10 34 27 16 11 19 7 6 5 4 6 4 2 5 3 3
23 24 26 27 29 29 29 27 27 26 25 25 22 20 16 16 14 12 11 9 12 12 9 7 8 7 6 9 19 3 8 6 27 24 24 16 10 5 3 5 4 5 3 4 2 8 5
22 24 25 27 29 30 28 29 29 29 28 27 25 20 17 16 13 11 14 15 16 13 7 5 4 5 4 3 7 13 8 5 21 19 23 19 8 3 3 6 4 2 4 5 3 8 3
23 25 26 29 29 29 29 29 29 29 30 27 25 21 17 15 12 11 10 16 11 3 4 2 3 1 3 3 5 12 5 9 10 14 12 9 3 4 3 4 8 6 4 3 8 2 3
23 24 25 28 29 28 27 29 31 32 33 33 28 20 16 13 11 9 12 4 3 4 2 5 5 4 3 3 5 4 4 13 9 11 6 9 4 14 10 4 4 7 5 4 2 2 1
22 24 27 28 27 28 28 29 32 34 35 33 31 24 19 16 13 9 4 2 2 2 1 4 7 8 8 4 4 2 6 5 6 12 7 6 8 8 9 5 6 5 5 3 1 3 0
21 24 26 27 27 28 28 31 31 33 33 34 33 29 16 9 10 7 7 3 2 0 2 4 2 4 5 4 5 3 4 5 6 5 12 11 6 12 11 6 6 2 4 3 2 2 2
21 23 25 26 26 27 28 30 31 30 31 30 30 26 20 6 12 8 4 2 2 0 4 3 2 3 1 4 5 1 1 2 4 10 8 3 3 13 12 11 7 4 2 4 4 3 1
20 22 25 26 27 27 29 30 30 29 27 27 26 22 21 17 8 4 2 4 4 1 5 5 4 5 5 5 6 3 3 2 5 10 5 3 5 8 9 6 5 4 5 4 3 4 2
18 21 23 25 27 27 29 29 29 28 24 22 25 25 14 10 10 7 4 4 2 5 6 4 6 8 5 3 3 1 5 6 3 12 11 4 2 4 2 7 5 6 5 6 4 2 0
17 20 22 25 27 27 29 29 28 28 23 19 17 16 16 11 2 3 4 3 4 6 1 3 3 4 3 5 6 2 2 4 2 5 3 4 5 4 3 7 6 0 4 1 2 1 3
17 20 22 24 27 27 28 30 29 28 25 16 13 10 6 8 5 4 6 3 9 5 5 4 5 9 5 5 6 4 3 3 5 7 3 3 4 4 5 3 6 5 3 3 4 3 2
16 18 21 24 26 28 28 29 30 29 30 23 13 5 2 5 7 2 2 6 2 1 4 7 6 7 5 5 4 4 3 1 2 1 4 4 3 1 4 2 2 3 2 3 6 1 1
14 17 20 23 26 28 29 29 30 31 29 21 9 5 4 17 2 4 3 6 3 2 2 4 4 2 3 3 3 2 1 1 3 2 1 3 5 2 2 3 7 2 5 3 2 3 3
13 16 19 21 24 27 30 30 31 33 30 13 3 3 5 16 2 5 4 3 3 4 2 2 3 4 3 4 3 2 1 1 1 2 4 4 3 0 2 1 5 2 1 5 4 1 3
13 14 17 21 23 26 29 31 32 33 29 9 4 3 13 11 4 2 3 3 3 3 2 2 4 3 4 4 3 2 3 1 2 4 3 1 4 3 2 1 1 2 4 4 3 4 1
12 13 17 20 23 25 27 30 31 32 24 7 2 2 6 4 3 3 4 3 1 5 4 3 2 2 1 3 3 2 3 3 3 2 5 4 2 3 4 3 2 3 3 3 4 3 5
11 12 15 19 21 24 26 29 30 31 19 5 2 2 4 4 1 2 4 3 4 1 2 3 2 3 3 4 5 3 2 3 2 2 6 6 3 4 5 3 4 3 4 5 5 3 3
10 13 13 16 19 23 24 26 29 30 14 4 3 1 1 1 2 2 1 2 2 3 3 3 3 2 3 3 2 2 2 3 2 4 3 3 3 2 3 3 3 4 4 8 7 4 5
11 13 13 16 17 19 21 24 27 30 12 6 2 2 1 1 2 1 0 1 1 2 1 2 5 3 2 4 5 7 5 2 3 1 3 2 3 1 2 1 4 4 7 8 9 4 8
11 13 15 15 15 17 19 20 23 27 14 7 6 2 0 2 1 1 2 2 1 2 0 2 1 1 3 1 2 3 1 3 6 7 3 4 5 2 3 2 4 6 9 12 6 5 9
10 13 16 15 15 15 16 16 18 20 18 6 5 3 2 2 1 1 4 3 1 0 2 1 2 3 2 4 3 6 6 6 6 3 3 5 4 2 1 3 1 4 4 6 13 5 11
9 12 15 16 14 13 14 14 14 15 19 7 10 4 2 3 2 4 2 3 5 4 0 1 0 1 2 3 3 3 1 2 3 2 3 2 4 2 1 3 5 1 3 6 5 2 11
8 13 14 13 12 16 11 12 12 11 13 8 9 9 1 2 3 1 2 2 1 1 3 1 1 1 3 2 2 3 4 4 3 1 4 4 4 3 2 2 3 3 3 3 2 2 5
9 10 11 11 13 13 12 10 11 10 10 10 5 10 1 2 3 3 4 3 1 1 2 2 3 2 2 2 2 3 4 4 5 6 4 3 2 5 4 3 6 5 4 6 2 3 2
10 9 9 10 12 12 14 15 8 9 8 8 5 2 3 1 5 3 2 3 3 2 3 2 2 1 2 4 4 3 3 5 3 4 5 8 6 3 3 4 7 5 3 6 3 2 3
10 9 9 8 11 14 14 16 9 7 7 7 2 4 5 3 6 8 18 23 18 13 3 2 2 3 4 3 1 3 3 2 4 3 2 5 6 5 7 5 4 4 1 2 3 4 2
Wind_Direction
344 340 341 340 337 332 329 330 329 326 320 319 318 318 323 319 324 327 320 315 313 308 294 282 286 305 294 238 235 210 351 242 196 194 191 171 174 171 179 158 124 148 169 175 217 129 160
343 341 341 340 338 333 332 335 331 326 321 319 316 319 317 320 318 321 324 322 316 310 299 289 287 287 242 249 225 239 276 305 192 186 192 169 174 150 159 177 176 175 160 158 248 220 191
343 341 343 343 340 338 334 335 333 328 324 321 319 320 315 311 316 318 313 307 303 307 289 284 280 272 241 239 288 251 306 271 193 189 177 171 161 162 128 121 187 129 121 279 240 206 253
343 344 343 343 340 339 338 338 336 334 332 325 326 323 314 317 312 309 307 301 304 308 281 279 276 239 239 228 227 174 299 237 178 184 177 168 148 120 136 120 75 120 99 157 240 178 223
344 347 345 346 344 340 344 343 341 337 331 326 322 320 311 317 306 310 307 297 304 294 259 262 263 200 231 201 192 221 249 206 163 169 177 172 153 129 96 122 103 142 188 189 296 190 137
348 348 347 349 345 346 347 342 340 336 332 326 321 316 315 310 297 305 321 320 318 221 196 194 263 189 237 206 145 152 202 199 167 158 152 170 155 133 120 161 185 158 131 176 204 164 154
350 347 349 349 348 346 344 343 341 339 337 332 323 307 304 303 292 298 317 348 30 31 29 174 208 267 88 121 132 113 177 155 152 147 164 184 166 194 163 142 154 134 129 165 199 99 178
350 348 351 352 348 346 349 345 346 349 352 357 352 336 296 284 279 283 288 127 205 140 50 236 267 264 288 250 118 42 125 162 152 163 136 154 205 161 148 143 121 119 131 190 332 38 137
351 350 352 352 348 349 347 346 354 352 357 359 360 356 342 305 310 262 183 145 136 188 131 55 23 276 274 137 98 205 166 99 95 117 181 155 163 139 164 162 127 103 145 159 143 357 64
351 354 353 352 352 349 348 353 357 357 -0 5 10 15 19 70 61 73 68 38 227 161 87 85 271 131 184 111 72 38 73 97 116 142 101 78 306 157 160 182 157 148 115 110 109 82 255
354 354 354 352 351 351 350 353 358 359 360 10 12 8 20 52 102 48 39 86 119 66 84 10 20 307 114 80 135 13 339 69 101 120 145 204 141 152 150 156 149 117 105 108 92 89 28
355 355 354 353 354 352 350 353 358 357 358 11 20 20 30 35 47 63 86 86 49 38 61 22 346 118 124 118 62 77 20 52 57 76 71 63 22 67 72 69 60 129 84 55 55 85 356
353 354 355 354 355 356 353 354 355 353 353 1 5 19 36 38 7 23 2 353 31 62 321 36 88 135 115 112 106 187 89 77 101 102 62 64 17 31 77 74 37 162 91 65 16 37 217
353 355 355 355 354 357 356 353 353 351 347 340 340 345 18 31 2 310 341 49 55 18 48 105 114 89 79 36 49 66 48 95 44 88 110 131 115 159 171 161 157 179 168 156 192 187 240
356 353 356 355 354 356 358 356 351 350 343 337 337 327 290 327 330 262 22 51 64 41 107 133 70 61 27 33 85 74 42 115 97 113 125 124 53 319 53 111 82 171 137 138 105 44 14
356 355 356 357 355 354 356 357 353 349 344 331 340 331 309 346 9 139 65 93 73 278 31 63 94 12 112 96 65 93 191 319 108 69 163 163 106 353 163 78 48 103 140 85 18 143 234
355 358 355 358 357 354 354 357 356 352 347 343 355 48 346 352 1 57 59 52 353 325 347 82 138 99 67 137 131 168 115 327 128 72 91 123 100 57 126 159 161 101 106 56 102 110 173
355 357 355 359 359 357 355 355 356 357 353 360 357 41 343 356 47 24 24 344 315 317 316 75 105 110 133 168 115 139 149 216 167 143 87 76 117 132 110 1 164 188 178 148 140 208 65
353 355 356 357 359 358 357 355 356 358 358 338 36 286 348 5 76 11 318 311 281 354 4 31 62 53 113 122 111 104 123 336 173 108 157 183 59 74 5 15 354 204 196 149 112 101 201
350 352 356 356 357 356 358 356 357 357 360 346 75 29 340 38 55 48 8 347 353 175 4 53 99 63 89 59 28 145 121 15 216 56 103 89 102 149 181 191 140 188 185 180 137 142 179
351 351 351 359 357 355 357 359 357 359 2 348 31 66 172 314 4 68 268 284 345 5 349 24 59 134 140 111 95 120 140 108 61 152 61 100 120 110 253 218 175 202 187 186 197 179 178
351 352 351 355 356 357 357 2 3 3 13 64 58 23 36 287 308 212 345 359 359 331 300 352 136 200 116 155 182 191 143 138 181 72 114 50 127 118 311 77 207 247 232 206 218 216 256
339 345 349 346 351 356 358 3 8 10 28 56 6 339 321 308 359 273 219 220 312 244 150 80 129 80 95 236 213 208 184 143 164 144 140 131 136 107 271 320 322 286 225 201 189 197 203
334 341 343 342 347 352 356 2 10 15 28 44 12 305 358 286 354 199 350 326 286 10 159 11 70 104 172 112 102 66 70 89 102 77 137 137 108 105 288 11 289 244 157 192 198 196 213
330 336 338 335 336 341 351 355 8 13 15 25 24 359 349 286 279 310 5 281 311 324 114 175 135 92 148 65 67 109 48 125 114 84 153 167 121 145 200 244 283 220 178 142 179 239 200
317 329 332 329 325 340 344 350 356 10 8 24 25 4 353 316 254 296 310 312 257 264 334 244 8 153 80 91 111 156 204 202 192 92 18 100 96 131 180 241 242 250 144 116 62 228 178
300 316 326 327 332 327 335 346 346 359 359 12 24 15 334 283 272 205 232 245 241 192 211 287 191 166 36 114 132 173 231 187 175 190 171 147 169 195 197 268 287 236 155 100 162 185 216
289 307 314 326 333 325 330 332 324 336 345 354 342 8 38 253 277 264 269 249 287 169 182 268 65 293 74 164 179 181 176 218 150 189 170 186 179 183 170 213 260 162 85 160 219 235 229
286 301 306 320 327 327 325 323 318 327 333 323 310 315 264 196 248 248 258 262 261 264 308 233 246 207 200 111 200 121 166 146 161 206 335 201 186 182 189 211 235 208 234 187 172 233 244